Location: Crocus Hill
(18.2167°N, 63.0667°W)
Time: 02:20:51
(UTC+00:00)

Cosmos 2219 Rocket - Pass Details

Date: 26 January 2020
Orbit: 827 x 848 km, 71.0° (Epoch: 19 February)

Event Time Altitude Azimuth Distance (km) Brightness Sun altitude
Rises 09:51:25 0° 181° (S) 3,370 5.5 -13.3°
Reaches altitude 10° 09:53:56 10° 175° (S) 2,441 4.9 -12.8°
Maximum altitude 09:59:14 44° 104° (ESE) 1,141 3.5 -11.6°
Drops below altitude 10° 10:04:34 10° 33° (NNE) 2,459 4.8 -10.3°
Sets 10:07:07 0° 27° (NNE) 3,398 5.5 -9.8°
